This is the latest recevied weather packets stored in our database for station/object K5IDL. If no packets are shown the sender has not sent any weather packets the latest 10 day(s).
| Time | Temp. | Humidity | Pressure | Rain* | Wind** | Luminosity | Snow |
|---|---|---|---|---|---|---|---|
| 1777826750 | 26.67° C | 42% | 1021.7 hPa | 0 mm | - | 671 W/m² | - |
| 1777826447 | 26.67° C | 41% | 1021.8 hPa | 0 mm | - | 663 W/m² | - |
| 1777826144 | 26.67° C | 42% | 1021.8 hPa | 0 mm | - | 655 W/m² | - |
| 1777825841 | 26.11° C | 42% | 1021.9 hPa | 0 mm | - | 646 W/m² | - |
| 1777825538 | 26.11° C | 42% | 1022 hPa | 0 mm | - | 635 W/m² | - |
| 1777825236 | 26.11° C | 42% | 1022 hPa | 0 mm | - | 626 W/m² | - |
| 1777824932 | 26.11° C | 43% | 1022 hPa | 0 mm | - | 614 W/m² | - |
| 1777824628 | 25.56° C | 42% | 1021.8 hPa | 0 mm | - | 602 W/m² | - |
| 1777824326 | 25.56° C | 43% | 1022 hPa | 0 mm | - | 590 W/m² | - |
| 1777824021 | 26.11° C | 42% | 1022.3 hPa | 0 mm | - | 578 W/m² | - |
| 1777823718 | 25.56° C | 43% | 1022.3 hPa | 0 mm | - | 565 W/m² | - |
| 1777823415 | 25.56° C | 43% | 1022.2 hPa | 0 mm | - | 553 W/m² | - |
| 1777823112 | 25.56° C | 43% | 1022.2 hPa | 0 mm | - | 541 W/m² | - |
| 1777822810 | 25° C | 43% | 1022.2 hPa | 0 mm | - | 524 W/m² | - |
| 1777822508 | 25° C | 44% | 1022.2 hPa | 0 mm | - | 518 W/m² | - |
| 1777822205 | 25° C | 44% | 1022 hPa | 0 mm | - | 503 W/m² | - |
| 1777821903 | 24.44° C | 45% | 1022.2 hPa | 0 mm | - | 489 W/m² | - |
| 1777821600 | 25.56° C | 43% | 1022 hPa | 0 mm | - | 476 W/m² | - |
| 1777821298 | 25° C | 44% | 1021.9 hPa | 0 mm | - | 462 W/m² | - |
| 1777820994 | 24.44° C | 46% | 1022 hPa | 0 mm | - | 447 W/m² | - |
| 1777820691 | 23.89° C | 45% | 1022 hPa | 0 mm | - | 432 W/m² | - |
| 1777820387 | 23.89° C | 45% | 1021.8 hPa | 0 mm | - | 419 W/m² | - |
| 1777820085 | 23.33° C | 46% | 1021.9 hPa | 0 mm | - | 402 W/m² | - |
| 1777819782 | 23.89° C | 46% | 1022 hPa | 0 mm | - | 389 W/m² | - |
| 1777819480 | 24.44° C | 46% | 1022 hPa | 0 mm | - | 373 W/m² | - |
* Rain latest hour (hover to see other rain measurements)
** Current wind speed in m/s (hover to see current wind gust speed)